GEFSMW_con_cape1000_120.txt.gz
Probability
48 45 39 32 32 35 26 23 29 26 23 23 23 19 16 16 6 10 6 6 3 0 0 0 0 0 0 0 0 0 0 0 0 0 0 0 0 0 0 0 3 0 3
52 55 48 52 48 32 29 23 26 23 19 16 13 6 6 3 0 0 0 3 3 0 0 3 0 0 0 0 0 0 0 0 0 0 0 0 0 0 0 0 0 0 3
45 52 55 48 42 39 26 26 26 23 23 19 13 6 3 3 0 0 0 0 3 3 0 0 0 0 0 0 0 0 0 0 0 0 0 0 0 0 0 0 0 0 0
39 42 45 48 39 35 29 19 26 23 23 19 13 10 3 3 0 0 0 0 0 3 0 0 0 0 0 0 0 0 0 0 0 0 0 0 0 0 0 0 0 0 0
39 35 39 42 42 39 35 19 23 19 19 16 13 10 6 0 0 0 0 0 0 0 3 0 0 0 0 0 0 0 0 0 0 0 0 0 0 0 0 0 0 0 0
32 29 32 29 35 32 35 19 19 16 16 13 6 6 3 0 0 0 0 0 0 0 0 0 0 0 0 0 0 0 0 0 0 0 0 0 0 0 0 0 0 0 0
26 26 26 32 32 29 35 26 23 26 19 13 10 6 6 0 0 0 0 0 0 0 0 0 0 0 0 0 0 0 0 0 0 0 0 0 0 0 0 0 0 0 0
32 26 26 35 29 26 32 29 23 16 13 13 10 6 6 3 3 0 0 0 0 0 0 0 0 3 0 0 0 0 0 0 0 0 0 0 0 0 0 0 0 0 0
29 26 26 26 26 29 26 23 23 13 13 6 6 6 3 3 6 3 0 0 0 0 0 0 3 3 3 0 0 0 0 0 0 0 0 0 0 0 0 0 0 0 0
29 26 32 23 23 29 26 19 23 26 26 13 6 13 6 10 6 3 3 3 0 0 3 3 3 3 3 0 0 0 3 3 3 0 3 3 0 0 0 0 0 0 0
26 26 23 16 23 19 19 26 26 29 26 26 19 16 13 10 6 6 3 3 3 3 3 3 3 3 0 0 0 3 3 3 3 0 0 0 0 0 0 0 0 0 0
16 19 19 23 19 19 23 26 26 23 29 32 26 23 23 13 16 13 6 6 3 0 3 0 0 0 0 0 0 0 3 3 3 0 0 0 0 0 0 0 0 0 0
13 13 16 23 23 16 19 23 26 26 32 32 32 29 23 23 19 13 3 3 3 0 0 0 0 0 0 0 0 0 0 0 0 0 0 0 0 0 0 0 0 0 0
19 13 10 13 19 19 16 16 26 26 29 32 35 32 32 19 13 13 6 3 6 3 0 0 0 0 0 0 0 0 0 0 0 0 0 0 0 0 0 0 0 0 0
16 16 10 0 6 13 13 10 16 19 23 32 29 23 23 19 16 13 3 3 0 3 0 0 0 0 0 0 0 0 0 0 0 0 0 0 0 0 0 0 0 0 0
16 13 13 6 10 13 13 13 13 23 26 26 26 19 16 16 13 6 6 6 6 3 0 0 0 0 0 0 0 0 0 0 0 0 0 0 0 0 0 0 0 0 0
19 19 23 13 16 16 10 13 13 19 19 19 16 13 13 10 10 6 10 6 6 0 0 0 0 0 0 0 0 0 0 0 0 0 0 0 0 0 0 0 0 0 0
19 19 16 23 16 6 6 3 10 6 13 13 13 13 10 10 10 6 10 3 0 0 0 0 0 0 0 0 0 0 0 0 0 0 0 0 0 0 0 0 0 0 0
10 10 16 23 19 13 6 6 10 10 10 13 13 10 10 10 6 6 0 0 0 0 0 0 0 0 0 0 0 0 0 0 0 0 0 0 0 0 0 0 0 0 0
6 10 13 19 13 13 13 13 13 10 10 10 10 10 3 3 3 0 0 0 0 0 0 0 0 0 0 0 0 0 0 0 0 0 0 0 0 0 0 0 0 0 0
10 10 13 13 13 10 13 13 13 6 6 3 3 3 0 0 0 0 0 0 0 0 0 0 0 0 0 0 0 0 0 0 0 0 0 0 0 0 0 0 0 0 0
13 10 10 13 6 6 10 6 3 3 3 0 0 0 0 0 0 0 0 0 0 0 0 0 0 0 0 0 0 0 0 0 0 0 0 0 0 0 0 0 0 0 0
10 6 10 6 3 3 3 3 3 3 0 0 0 0 0 0 0 0 0 0 0 0 0 0 0 0 0 0 0 0 0 0 0 0 0 0 0 0 0 0 0 0 0
3 3 3 3 0 0 0 3 0 0 0 0 0 0 0 0 0 0 0 0 0 0 0 0 0 0 0 0 0 0 0 0 0 0 0 0 0 0 0 0 0 0 0
0 0 0 0 0 0 0 0 0 0 0 0 0 0 0 0 0 0 0 0 0 0 0 0 0 0 0 0 0 0 0 0 0 0 0 0 0 0 0 0 0 0 0
0 0 0 0 0 0 0 0 0 0 0 0 0 0 0 0 0 0 0 0 0 0 0 0 0 0 0 0 0 0 0 0 0 0 0 0 0 0 0 0 0 0 0

GEFSMW_con_cape1000_126.txt.gz
Probability
23 23 29 32 23 6 6 3 0 0 6 3 3 3 3 3 0 0 3 3 3 3 0 3 0 0 0 0 0 0 0 0 0 0 0 0 0 0 0 0 3 13 13
32 26 29 23 16 16 6 0 3 3 3 3 3 3 3 3 3 0 3 3 3 0 0 0 0 0 0 0 0 0 0 0 0 0 0 0 0 0 0 0 0 3 3
35 32 23 13 16 13 10 6 3 3 3 3 3 0 0 0 0 0 3 3 0 0 0 0 0 0 0 0 0 0 0 0 0 0 0 0 0 0 0 0 0 0 0
32 32 29 19 10 13 13 6 3 3 3 3 3 3 3 3 0 0 0 0 0 0 0 0 0 0 0 0 0 0 0 0 0 0 0 0 0 0 0 0 0 0 0
29 32 32 26 16 16 13 10 3 3 6 6 3 3 3 3 0 0 0 0 0 0 0 0 0 0 0 0 0 0 0 0 0 0 0 0 0 0 0 0 0 0 0
29 26 26 35 16 10 6 10 6 10 6 3 3 3 3 3 0 0 0 0 0 0 0 0 0 0 0 0 0 0 0 0 0 0 0 0 0 0 0 0 0 0 0
23 13 19 16 10 13 16 10 10 13 6 6 6 6 6 3 3 0 0 0 0 0 0 0 0 0 0 0 0 0 0 0 0 0 0 0 0 0 0 0 0 0 0
16 23 19 13 6 10 10 10 6 6 6 6 6 6 6 3 3 3 3 0 0 0 0 0 0 0 0 0 0 0 0 0 0 0 0 0 0 0 0 0 0 0 0
19 19 19 16 13 10 6 6 3 3 3 3 3 3 3 0 0 3 3 3 0 0 0 0 0 0 0 0 0 0 0 0 0 0 0 0 0 0 0 0 0 0 0
16 16 16 13 13 13 6 3 6 3 3 3 3 3 3 3 0 0 0 0 0 0 0 0 0 0 0 0 0 0 0 0 0 0 0 0 0 0 0 0 0 0 0
16 19 13 6 6 10 10 6 6 3 3 3 3 3 3 3 0 0 0 0 0 0 0 0 0 0 0 0 0 0 0 0 0 0 0 0 0 0 0 0 0 0 0
13 13 10 10 6 6 16 13 6 3 6 3 3 3 3 3 0 0 3 3 3 0 0 0 0 0 0 0 0 0 0 0 0 0 0 0 0 0 0 0 0 0 0
13 13 10 10 13 16 6 10 3 3 6 6 10 6 3 3 0 3 3 3 0 0 0 0 0 0 0 0 0 0 0 0 0 0 0 0 0 0 0 0 0 0 0
10 10 6 10 10 10 13 6 6 6 6 10 10 6 6 3 3 3 0 0 0 0 0 0 0 0 0 0 0 0 0 0 0 0 0 0 0 0 0 0 0 0 0
10 10 10 10 10 10 3 3 6 6 10 13 6 10 6 3 0 0 0 0 0 0 0 0 0 0 0 0 0 0 0 0 0 0 0 0 0 0 0 0 0 0 0
10 10 13 10 10 3 3 0 0 6 10 10 10 10 3 3 0 3 3 0 0 0 0 0 0 0 0 0 0 0 0 0 0 0 0 0 0 0 0 0 0 0 0
10 10 10 6 6 0 0 3 3 3 10 6 6 6 3 3 0 3 3 0 0 0 0 0 0 0 0 0 0 0 0 0 0 0 0 0 0 0 0 0 0 0 0
10 6 3 0 0 0 0 0 0 0 3 3 3 6 3 3 0 0 0 0 0 0 0 0 0 0 0 0 0 0 0 0 0 0 0 0 0 0 0 0 0 0 0
0 0 0 0 0 0 0 0 0 0 0 3 6 6 3 3 0 0 0 0 0 0 0 0 0 0 0 0 0 0 0 0 0 0 0 0 0 0 0 0 0 0 0
0 0 0 3 3 0 0 0 0 3 3 3 3 3 3 3 0 0 0 0 0 0 0 0 0 0 0 0 0 0 0 0 0 0 0 0 0 0 0 0 0 0 0
0 3 3 3 0 0 0 0 0 0 0 3 3 3 3 0 0 0 0 0 0 0 0 0 0 0 0 0 0 0 0 0 0 0 0 0 0 0 0 0 0 0 0
3 6 6 6 6 0 0 0 0 0 3 3 3 3 0 0 0 0 0 0 0 0 0 0 0 0 0 0 0 0 0 0 0 0 0 0 0 0 0 0 0 0 0
6 6 3 3 3 0 0 3 3 3 3 3 0 0 0 0 0 0 0 0 0 0 0 0 0 0 0 0 0 0 0 0 0 0 0 0 0 0 0 0 0 0 0
3 6 3 0 0 0 0 0 3 3 3 3 0 0 0 0 0 0 0 0 0 0 0 0 0 0 0 0 0 0 0 0 0 0 0 0 0 0 0 0 0 0 0
0 6 6 0 0 0 0 0 0 0 0 0 0 0 0 0 0 0 0 0 0 0 0 0 0 0 0 0 0 0 0 0 0 0 0 0 0 0 0 0 0 0 0
0 0 0 0 0 0 0 0 0 0 0 0 0 0 0 0 0 0 0 0 0 0 0 0 0 0 0 0 0 0 0 0 0 0 0 0 0 0 0 0 0 0 0

GEFSMW_con_cape1000_132.txt.gz
Probability
68 65 61 58 55 58 65 65 74 68 74 58 55 58 58 58 58 74 61 61 61 52 61 26 45 35 32 29 19 26 26 23 26 23 19 16 13 13 39 32 39 23 32
68 65 65 55 52 65 58 58 65 65 52 55 71 61 58 55 48 52 61 61 55 58 35 35 29 35 39 32 29 29 19 19 16 16 16 6 6 19 6 23 23 19 29
65 65 58 52 52 52 61 48 58 52 52 61 61 48 55 55 39 45 52 45 52 55 39 26 26 26 23 26 42 35 32 19 16 13 6 10 6 6 0 10 10 19 19
71 65 65 58 55 58 65 61 61 58 68 71 45 35 35 35 45 48 42 45 42 35 29 29 32 39 26 29 23 10 16 23 10 13 16 13 6 6 16 10 3 6 13
77 68 65 61 61 58 61 65 65 68 65 58 58 52 35 45 42 35 42 48 45 32 29 26 29 35 35 19 16 13 19 10 16 13 3 3 3 0 16 10 6 3 0
71 68 65 65 65 58 55 58 61 68 61 48 45 48 45 39 35 48 39 45 48 48 32 26 29 32 19 26 26 23 19 23 23 19 6 13 6 10 6 3 3 10 3
77 68 65 68 65 55 52 52 58 65 65 52 42 45 42 39 42 29 39 42 35 39 35 23 29 29 32 29 19 29 16 19 29 23 10 6 3 6 3 3 3 3 3
71 71 65 71 65 61 58 52 61 71 68 65 65 58 55 45 45 35 35 39 32 35 29 26 23 23 26 13 23 16 16 19 19 6 13 10 3 6 3 3 3 6 3
71 74 68 68 65 68 65 55 61 71 74 71 74 74 58 52 39 52 42 35 52 19 26 23 23 23 23 19 29 19 19 23 6 3 10 13 10 10 10 6 6 6 3
74 71 68 68 65 61 65 58 65 61 71 71 68 58 65 71 58 55 48 52 52 29 39 29 29 29 35 45 45 23 23 26 16 29 10 10 6 6 3 10 6 10 3
65 71 68 65 61 58 58 61 61 55 61 52 61 58 68 61 68 65 45 45 48 61 45 48 39 35 32 42 48 19 13 13 16 13 10 13 13 13 19 6 6 6 10
68 61 68 68 61 58 55 52 55 45 52 58 65 65 71 55 58 55 48 58 52 48 45 35 32 29 23 26 23 23 13 10 10 6 10 6 3 6 16 23 10 13 10
68 65 65 71 61 58 55 48 52 42 42 52 58 55 65 58 55 45 32 32 45 39 42 42 29 26 29 29 35 19 13 10 6 6 6 6 10 16 16 13 13 13 6
81 61 74 71 65 58 58 55 45 39 39 52 48 58 55 61 58 45 39 39 39 39 42 32 29 26 23 19 16 10 10 10 10 10 10 6 6 10 16 13 23 23 13
81 77 84 84 81 71 68 58 55 45 42 48 52 55 55 55 42 42 39 35 35 29 35 29 23 23 16 16 16 13 3 10 6 6 3 3 0 0 0 0 6 13 16
71 77 74 84 84 77 65 61 61 52 52 48 48 48 48 42 42 39 32 29 29 29 29 23 23 23 10 0 0 0 10 6 3 3 3 0 0 0 0 0 0 0 3
74 74 77 81 84 74 65 58 55 42 35 39 45 39 42 39 35 23 26 23 23 19 19 19 16 19 6 0 0 0 6 3 3 3 3 0 0 0 0 0 0 0 0
61 68 68 71 65 61 55 71 58 48 42 42 42 39 32 29 23 23 19 23 23 16 16 13 13 10 6 0 0 0 0 3 3 6 6 6 0 0 0 0 0 0 0
48 65 61 58 58 55 55 45 48 39 39 35 32 23 23 23 16 16 16 13 13 13 13 10 6 10 6 0 0 0 0 3 3 3 0 0 0 0 0 0 0 0 0
48 55 48 45 45 52 45 39 32 35 39 32 26 19 19 16 13 10 10 13 10 6 6 6 6 6 6 0 0 0 0 3 0 0 0 0 0 0 0 0 0 0 0
35 42 45 39 39 42 45 39 39 29 29 23 19 16 16 13 13 6 6 6 6 6 3 0 0 0 0 0 0 0 0 0 0 3 0 0 0 0 0 0 0 0 0
29 35 42 35 39 39 42 35 32 26 23 16 13 10 10 3 3 3 3 3 3 0 0 0 0 0 0 0 0 0 0 0 0 0 0 0 0 0 0 0 0 0 0
26 32 39 35 32 35 32 26 23 19 13 13 6 6 6 6 3 3 0 0 0 0 0 0 0 0 0 0 0 0 0 0 0 0 0 0 0 0 0 0 0 0 0
23 23 23 23 16 19 26 26 16 13 10 10 6 6 6 3 0 0 0 0 0 0 0 0 0 0 0 0 0 0 0 0 0 0 0 0 0 0 0 0 0 0 0
13 19 19 10 10 10 6 6 6 10 10 6 6 3 3 0 0 0 0 0 0 0 0 0 0 0 0 0 0 0 0 0 0 0 0 0 0 0 0 0 0 0 0
10 6 6 3 3 3 3 3 6 6 6 3 3 0 0 0 0 0 0 0 0 0 0 0 0 0 0 0 0 0 0 0 0 0 0 0 0 0 0 0 0 0 0

GEFSMW_con_cape1000_138.txt.gz
Probability
77 77 77 77 71 77 68 74 71 65 71 77 74 68 68 81 81 77 71 74 77 81 81 74 65 71 74 68 61 61 58 65 68 68 45 65 61 68 81 71 61 52 68
77 74 71 65 68 71 65 71 74 74 71 81 77 71 74 77 81 81 81 81 68 74 65 74 65 61 81 61 58 68 71 61 71 61 32 29 32 61 16 65 65 52 58
74 65 68 65 68 65 65 65 71 74 81 77 71 61 71 74 71 74 81 81 71 65 65 65 61 74 65 68 61 61 58 71 65 58 52 26 23 19 55 42 48 58 52
77 68 65 68 65 61 71 77 77 77 81 84 74 58 61 61 71 77 77 81 71 58 61 55 58 58 65 77 68 61 65 65 52 61 68 48 45 26 16 32 29 42 58
74 71 68 71 68 61 65 74 81 81 87 81 84 74 65 58 58 74 81 71 74 58 58 65 61 61 74 68 65 71 58 58 55 55 55 35 45 32 23 6 19 19 35
77 71 77 77 74 65 71 74 81 84 87 81 81 81 71 68 68 68 68 68 74 68 58 58 65 65 65 68 55 55 48 58 65 68 55 42 42 23 19 19 23 26 32
74 74 71 81 77 71 71 68 81 81 87 81 81 81 71 68 65 61 68 61 58 58 68 52 65 65 68 58 55 58 52 55 58 58 58 52 48 35 29 26 19 19 29
68 68 65 68 74 71 71 68 74 81 81 77 81 84 84 65 65 55 61 58 61 52 68 68 61 52 45 39 58 55 39 39 48 26 55 58 48 45 48 35 23 16 19
81 68 65 68 71 71 74 74 74 81 77 84 84 81 77 71 71 74 55 52 77 65 74 68 65 61 55 45 45 39 42 48 42 39 48 52 45 42 35 39 32 19 10
81 74 71 68 71 74 74 74 77 84 84 81 81 58 71 71 68 65 61 71 77 71 68 74 71 58 55 42 48 42 48 55 52 52 52 58 48 32 39 39 29 29 16
74 77 77 77 74 74 74 74 74 84 81 77 74 81 71 74 65 71 74 71 74 68 68 68 74 71 61 61 55 42 58 48 45 32 32 48 42 55 58 42 29 26 23
81 77 74 74 77 74 71 71 71 77 77 74 71 74 74 71 61 68 71 65 65 61 58 61 61 58 45 61 58 52 45 48 29 26 29 26 23 35 35 45 23 32 32
77 84 77 81 74 74 68 68 74 77 74 81 77 77 77 74 71 61 65 65 61 58 52 48 52 45 48 52 39 39 32 35 39 35 26 23 23 23 16 16 19 23 3
84 81 87 87 81 77 74 71 68 71 71 77 77 74 74 68 71 68 61 58 58 52 42 45 42 35 35 32 32 16 23 26 23 23 16 10 6 13 16 6 16 13 16
81 84 87 87 81 81 74 71 74 77 81 81 74 68 68 65 65 55 48 45 39 39 39 32 29 32 29 19 19 16 16 26 26 16 13 3 0 3 3 0 10 10 10
84 77 84 87 84 81 77 81 74 71 74 68 68 61 58 52 52 42 39 39 35 35 32 23 19 19 13 0 3 6 13 19 6 10 6 3 3 0 0 0 0 0 0
81 84 84 87 84 81 84 84 74 71 71 68 58 52 45 39 35 35 39 32 29 23 19 19 19 16 10 0 0 0 3 13 13 13 13 3 0 0 0 0 0 0 0
77 87 81 77 84 84 84 74 77 65 61 52 48 42 35 32 32 32 29 26 26 19 19 16 16 13 10 0 0 0 3 6 6 6 6 3 0 0 0 0 0 0 0
81 81 84 84 84 81 77 71 68 58 45 48 42 32 32 32 32 26 23 19 19 16 16 16 13 13 10 0 0 0 0 3 6 3 3 0 0 0 0 0 0 0 0
61 68 68 71 77 74 71 61 58 55 52 52 39 32 32 29 19 19 19 16 13 10 10 10 10 6 6 0 0 0 0 0 0 0 0 0 0 0 0 0 0 0 0
55 48 52 58 61 61 58 52 48 39 42 42 35 29 29 23 19 16 16 16 10 3 3 6 6 3 6 0 0 0 3 0 0 0 0 0 0 0 0 0 0 0 0
42 39 45 48 52 52 52 45 39 39 35 32 29 26 16 16 13 13 10 6 3 3 3 3 3 0 0 0 0 0 0 0 0 0 0 0 0 0 0 0 0 0 0
35 32 39 42 42 48 45 39 39 32 29 26 19 13 10 6 6 6 3 3 3 3 0 0 0 0 0 0 0 0 0 0 0 0 0 0 0 0 0 0 0 0 0
26 29 39 42 32 26 23 29 23 19 19 16 16 10 10 6 3 3 3 0 0 0 0 0 0 0 0 0 0 0 0 0 0 0 0 0 0 0 0 0 0 0 0
26 23 32 26 16 16 16 16 19 16 13 10 6 6 3 0 0 0 0 0 0 0 0 0 0 0 0 0 0 0 0 0 0 0 0 0 0 0 0 0 0 0 0
23 29 26 19 19 16 16 16 13 10 10 6 6 3 0 0 0 0 0 0 0 0 0 0 0 0 0 0 0 0 0 0 0 0 0 0 0 0 0 0 0 0 0

GEFSMW_con_cape1000_144.txt.gz
Probability
68 65 61 55 52 45 35 29 29 23 19 16 13 16 13 13 19 13 16 13 16 23 10 10 6 6 6 0 0 0 0 0 0 0 0 0 0 0 0 0 0 0 6
65 58 58 48 48 42 29 26 29 19 19 16 10 10 10 13 6 10 13 13 13 13 16 6 6 3 0 0 0 0 0 0 0 0 0 0 0 0 0 0 0 0 0
58 52 55 45 45 39 39 29 23 23 13 13 6 6 10 3 3 10 13 16 16 16 10 6 6 3 0 0 0 0 0 0 0 0 0 0 0 0 0 0 0 0 0
58 55 55 52 42 45 42 35 23 16 10 13 16 6 10 3 3 0 0 6 10 13 6 6 6 3 3 0 0 0 0 0 0 0 0 0 0 0 0 0 0 0 0
55 52 52 48 42 45 39 35 29 23 16 23 13 10 3 3 3 0 0 0 0 10 3 3 3 0 0 0 0 0 0 0 0 0 0 0 0 0 0 0 0 0 0
61 55 45 42 45 39 39 39 39 23 23 23 16 10 3 6 3 0 0 0 0 3 3 6 3 0 0 0 0 0 0 0 0 0 0 0 0 0 0 0 0 0 0
48 45 42 45 42 45 39 39 42 32 29 23 19 13 6 6 3 3 0 0 0 0 3 10 6 3 0 0 0 0 0 0 0 0 0 0 0 0 0 0 0 0 0
45 45 42 42 48 45 42 39 39 42 29 29 23 13 6 6 3 3 0 0 3 0 0 3 6 10 6 6 0 0 0 0 0 0 0 0 0 0 0 0 0 0 0
42 45 45 45 45 42 42 42 32 35 35 23 16 19 6 3 3 3 6 3 3 3 3 0 3 6 3 0 0 0 0 0 0 0 0 0 0 0 0 0 0 0 0
48 48 42 42 45 39 45 42 35 39 35 32 16 13 10 6 3 3 0 6 6 6 6 3 3 3 6 0 0 0 0 0 0 0 0 0 0 0 0 0 0 0 0
45 45 45 42 42 42 39 42 35 32 32 29 16 19 3 3 6 3 0 0 0 3 0 0 0 0 0 0 0 0 0 0 0 0 0 0 0 0 0 0 0 0 0
35 35 45 45 52 45 39 42 39 32 35 29 23 13 13 16 13 6 0 0 0 0 0 0 0 0 0 0 0 0 0 0 0 0 0 0 0 0 0 0 0 0 0
26 39 39 35 42 45 39 32 35 35 29 29 23 19 13 10 6 3 6 6 0 0 0 0 0 0 0 0 0 0 0 0 0 0 0 0 0 0 0 0 0 0 0
29 35 45 48 42 42 35 42 32 32 29 26 23 16 10 10 6 6 6 10 10 3 3 0 0 0 0 0 0 0 0 0 0 0 0 0 0 0 0 0 0 0 0
39 35 42 42 39 29 29 35 35 32 29 32 19 19 19 13 6 6 6 6 10 10 6 3 0 0 0 0 0 0 0 0 0 0 0 0 0 0 0 0 0 0 0
42 42 42 42 35 35 39 32 29 29 29 23 19 19 19 13 10 10 6 6 6 6 6 6 6 0 0 0 0 0 0 0 0 0 0 0 0 0 0 0 0 0 0
42 42 42 42 39 39 39 29 29 29 23 23 19 19 13 16 6 6 6 3 3 3 6 6 6 6 3 0 0 0 0 0 0 0 0 0 0 0 0 0 0 0 0
42 42 42 35 35 29 32 26 26 26 23 19 19 23 23 16 10 6 6 3 3 3 3 3 3 6 3 0 0 0 0 0 0 0 0 0 0 0 0 0 0 0 0
29 32 32 29 23 23 23 23 19 13 16 13 16 16 13 6 6 6 6 6 6 6 6 3 0 0 0 0 0 0 0 0 0 0 0 0 0 0 0 0 0 0 0
26 29 39 19 23 19 19 23 19 16 16 16 19 13 6 6 3 3 3 3 3 3 3 3 3 0 0 0 0 0 0 0 0 0 0 0 0 0 0 0 0 0 0
26 29 19 19 16 10 16 16 13 10 10 10 10 6 6 3 3 3 3 3 3 3 3 3 3 3 0 0 0 0 0 0 0 0 0 0 0 0 0 0 0 0 0
23 19 13 13 16 13 13 13 10 10 10 10 6 10 6 6 3 3 3 3 3 3 3 3 3 0 0 0 0 0 0 0 0 0 0 0 0 0 0 0 0 0 0
6 16 10 10 10 6 6 6 10 10 10 6 3 3 3 3 3 3 3 3 3 3 3 3 0 0 0 0 0 0 0 0 0 0 0 0 0 0 0 0 0 0 0
10 6 6 6 6 6 3 6 6 10 6 3 3 3 3 3 3 3 3 3 3 3 3 3 0 0 0 0 0 0 0 0 0 0 0 0 0 0 0 0 0 0 0
10 10 10 6 6 6 6 3 3 3 3 3 3 3 3 3 3 0 0 3 3 3 0 0 0 0 0 0 0 0 0 0 0 0 0 0 0 0 0 0 0 0 0
6 6 10 10 10 3 6 3 0 0 3 3 3 3 3 3 0 0 0 0 0 0 0 0 0 0 0 0 0 0 0 0 0 0 0 0 0 0 0 0 0 0 0

GEFSMW_con_cape1000_150.txt.gz
Probability
32 39 35 32 23 10 10 3 3 0 3 10 0 0 0 6 6 3 3 3 6 6 6 3 0 0 0 0 0 0 0 0 0 0 0 0 0 0 0 0 0 0 6
39 45 42 39 23 13 10 3 0 0 0 3 0 0 0 3 3 3 3 6 6 6 6 3 0 0 0 0 0 0 0 0 0 0 0 0 0 0 0 0 0 0 0
35 42 45 39 32 26 13 13 0 0 0 3 3 0 0 0 3 3 3 6 6 6 3 0 0 0 0 0 0 0 0 0 0 0 0 0 0 0 0 0 0 0 0
35 39 42 32 29 29 16 16 6 6 3 3 3 3 3 6 0 0 0 0 6 6 0 0 0 0 0 0 0 0 0 0 0 0 0 0 0 0 0 0 0 0 0
29 32 39 42 29 29 16 16 3 6 6 3 6 3 6 0 0 0 0 0 3 3 0 0 0 0 0 0 0 0 0 0 0 0 0 0 0 0 0 0 0 0 0
32 29 32 35 35 32 29 13 10 13 6 10 10 6 6 0 0 0 0 0 0 0 0 0 0 0 0 0 0 0 0 0 0 0 0 0 0 0 0 0 0 0 0
35 39 35 29 32 32 32 23 10 13 6 10 6 6 3 3 0 0 0 0 0 0 0 0 0 0 0 0 0 0 0 0 0 0 0 0 0 0 0 0 0 0 0
39 35 35 35 32 32 29 19 13 10 10 3 6 3 3 3 0 0 0 0 0 0 0 0 0 0 0 0 0 0 0 0 0 0 0 0 0 0 0 0 0 0 0
29 29 35 32 29 29 26 19 26 10 10 6 6 3 3 0 0 0 0 0 0 0 0 0 0 0 0 0 0 0 0 0 0 0 0 0 0 0 0 0 0 0 0
29 26 29 29 32 26 23 26 23 16 6 6 6 3 0 0 0 0 0 0 0 0 0 0 0 0 0 0 0 0 0 0 0 0 0 0 0 0 0 0 0 0 0
26 23 26 29 26 23 23 23 23 10 6 3 3 3 0 0 0 0 0 0 0 0 0 0 0 0 0 0 0 0 0 0 0 0 0 0 0 0 0 0 0 0 0
23 23 26 26 26 19 16 19 16 10 6 3 3 0 0 0 0 0 0 0 0 0 0 0 0 0 0 0 0 0 0 0 0 0 0 0 0 0 0 0 0 0 0
26 26 23 23 26 16 16 16 16 10 10 6 3 0 0 0 0 0 0 0 0 0 0 0 0 0 0 0 0 0 0 0 0 0 0 0 0 0 0 0 0 0 0
26 23 23 26 19 13 10 13 13 13 10 6 3 3 3 3 0 0 0 0 0 0 0 0 0 0 0 0 0 0 0 0 0 0 0 0 0 0 0 0 0 0 0
16 16 23 16 13 13 10 13 13 13 13 13 10 6 3 6 3 0 0 0 0 0 0 0 0 0 0 0 0 0 0 0 0 0 0 0 0 0 0 0 0 0 0
13 13 16 19 16 16 16 10 13 10 10 13 13 10 0 0 0 0 0 3 3 6 6 6 6 6 3 0 0 0 0 0 0 0 0 0 0 0 0 0 0 0 0
13 16 16 16 19 19 13 10 10 6 10 6 3 6 6 6 6 3 6 3 3 3 3 3 3 3 6 0 0 0 0 0 0 0 0 0 0 0 0 0 0 0 0
16 19 19 16 10 13 10 10 6 6 6 3 6 3 3 0 0 0 0 3 3 3 3 3 3 3 3 0 0 0 0 0 0 0 0 0 0 0 0 0 0 0 0
19 16 16 13 10 16 10 6 6 3 3 3 3 3 3 0 0 0 0 0 0 0 0 0 0 0 0 0 0 0 0 0 0 0 0 0 0 0 0 0 0 0 0
10 13 16 10 13 13 13 6 3 3 3 3 3 3 6 3 3 0 0 0 0 0 0 0 0 0 0 0 0 0 0 0 0 0 0 0 0 0 0 0 0 0 0
6 16 13 13 13 6 6 6 3 3 3 3 6 6 3 3 3 3 0 0 0 0 0 0 0 0 0 0 0 0 0 0 0 0 0 0 0 0 0 0 0 0 0
6 6 10 10 3 3 3 3 3 6 6 6 3 0 0 3 3 3 0 0 0 0 0 0 0 0 0 0 0 0 0 0 0 0 0 0 0 0 0 0 0 0 0
6 6 10 6 3 3 3 3 3 3 3 6 6 3 3 0 3 3 3 0 0 0 0 0 0 0 0 0 0 0 0 0 0 0 0 0 0 0 0 0 0 0 0
3 10 10 10 6 3 3 3 3 3 3 3 0 0 3 3 3 3 3 3 3 3 0 0 0 0 0 0 0 0 0 0 0 0 0 0 0 0 0 0 0 0 0
6 6 10 10 6 3 3 0 0 0 0 0 0 0 3 3 3 3 0 3 3 3 3 3 3 3 0 0 0 0 0 0 0 0 0 0 0 0 0 0 0 0 0
6 6 6 6 6 3 0 0 0 0 0 3 0 0 0 3 3 3 0 0 0 0 0 0 0 0 0 0 0 0 0 0 0 0 0 0 0 0 0 0 0 0 0